Tracking 29777 objects as of 6-Oct-2024
HD Live streaming from Space Station
objects crossing your sky now

STARLINK-2506

Track STARLINK-2506 now!
10-day predictions
STARLINK-2506 is classified as:


NORAD ID: 48315
Int'l Code: 2021-036AR
Perigee: 553.3 km
Apogee: 555.3 km
Inclination: 53.1 °
Period: 95.6 minutes
Semi major axis: 6925 km
RCS: Unknown
Launch date: April 29, 2021
Source: United States (US)
Launch site: AIR FORCE EASTERN TEST RANGE (AFETR)
Your satellite tracking list
Your tracking list is empty




NASA's NSSDC Master Catalog

Two Line Element Set (TLE):
1 48315U 21036AR  24280.11239009  .00017474  00000-0  11883-2 0  9990
2 48315  53.0554 264.0915 0001464  98.9311 261.1844 15.06424379190500
Source of the keplerian elements: AFSPC